When you browse on this site, cookies collect data to enhance your experience and personalize the content and advertising you see.
Visit our Privacy Policy to learn more. By continuing to use the site, you agree to this use of cookies and data.
  • în România
  • Lista ţărilor
  • Pe 7 zile
  • Temperatura apei
  • Hartă satelitară
  • Meteo pe hartă
  • Widget-uri
  • user-avatar
    Intrare

    Meteo pe oră la Steinkjer

    Astăzi, 17 Iunie, Luni

    Timp Temperatura Precipitaţii Vânt Presiune Umiditate
    00:00 +13°C° 0 mm 2 m/s 752 mmHg 86%
    01:00 +12°C° 0 mm 1 m/s 752 mmHg 89%
    02:00 +12°C° 0 mm 1 m/s 752 mmHg 89%
    03:00 +12°C° 0 mm 1 m/s 752 mmHg 89%
    04:00 +13°C° 0 mm 1 m/s 752 mmHg 89%
    05:00 +12°C° 0.2 mm 2 m/s 752 mmHg 91%
    06:00 +12°C° 0.2 mm 2 m/s 752 mmHg 92%
    07:00 +11°C° 0.2 mm 3 m/s 752 mmHg 94%
    08:00 +12°C° 0.3 mm 2 m/s 752 mmHg 93%
    09:00 +12°C° 0.3 mm 2 m/s 752 mmHg 93%
    10:00 +12°C° 0.3 mm 1 m/s 753 mmHg 93%
    11:00 +13°C° 0.2 mm 1 m/s 752 mmHg 92%
    12:00 +13°C° 0.2 mm 1 m/s 752 mmHg 91%
    13:00 +12°C° 0.2 mm 0 m/s 752 mmHg 91%
    14:00 +14°C° 0 mm 1 m/s 752 mmHg 86%
    15:00 +15°C° 0 mm 1 m/s 751 mmHg 81%
    16:00 +16°C° 0 mm 1 m/s 751 mmHg 77%
    17:00 +16°C° 0 mm 1 m/s 751 mmHg 75%
    18:00 +16°C° 0 mm 2 m/s 750 mmHg 74%
    19:00 +16°C° 0 mm 2 m/s 750 mmHg 73%
    20:00 +15°C° 0 mm 2 m/s 750 mmHg 77%
    21:00 +14°C° 0 mm 2 m/s 750 mmHg 82%
    22:00 +12°C° 0 mm 1 m/s 750 mmHg 86%
    23:00 +12°C° 0.1 mm 1 m/s 749 mmHg 87%

    Mâine, 18 Iunie, Marţi

    Timp Temperatura Precipitaţii Vânt Presiune Umiditate
    00:00 +12°C° 0.1 mm 1 m/s 749 mmHg 87%
    01:00 +12°C° 0.1 mm 1 m/s 749 mmHg 88%
    02:00 +12°C° 0 mm 1 m/s 749 mmHg 88%
    03:00 +13°C° 0 mm 1 m/s 749 mmHg 88%
    04:00 +12°C° 0 mm 0 m/s 749 mmHg 87%
    05:00 +13°C° 0.3 mm 1 m/s 749 mmHg 88%
    06:00 +13°C° 0.3 mm 2 m/s 748 mmHg 89%
    07:00 +12°C° 0.3 mm 3 m/s 748 mmHg 89%
    08:00 +11°C° 0.7 mm 3 m/s 748 mmHg 89%
    09:00 +12°C° 0.7 mm 2 m/s 749 mmHg 89%
    10:00 +12°C° 0.7 mm 2 m/s 749 mmHg 89%
    11:00 +13°C° 0.1 mm 2 m/s 749 mmHg 80%
    12:00 +15°C° 0.1 mm 2 m/s 749 mmHg 72%
    13:00 +18°C° 0.1 mm 1 m/s 748 mmHg 64%
    14:00 +19°C° 0 mm 1 m/s 748 mmHg 60%
    15:00 +19°C° 0 mm 1 m/s 748 mmHg 55%
    16:00 +20°C° 0 mm 1 m/s 748 mmHg 51%
    17:00 +18°C° 0.3 mm 2 m/s 748 mmHg 60%
    18:00 +16°C° 0.3 mm 3 m/s 748 mmHg 69%
    19:00 +14°C° 0.3 mm 3 m/s 747 mmHg 78%
    20:00 +13°C° 1.1 mm 4 m/s 747 mmHg 82%
    21:00 +12°C° 1.1 mm 5 m/s 747 mmHg 87%
    22:00 +10°C° 1.1 mm 6 m/s 748 mmHg 91%
    23:00 +9°C° 1.5 mm 5 m/s 748 mmHg 92%

    Poimâine, 19 Iunie, Miercuri

    Timp Temperatura Precipitaţii Vânt Presiune Umiditate
    00:00 +10°C° 1.5 mm 3 m/s 748 mmHg 94%
    01:00 +10°C° 1.5 mm 1 m/s 748 mmHg 95%
    02:00 +10°C° 0.4 mm 1 m/s 748 mmHg 94%
    03:00 +10°C° 0.4 mm 1 m/s 748 mmHg 94%
    04:00 +10°C° 0.4 mm 1 m/s 749 mmHg 93%
    05:00 +11°C° 0.1 mm 1 m/s 749 mmHg 93%
    06:00 +11°C° 0.1 mm 1 m/s 749 mmHg 92%
    07:00 +11°C° 0.1 mm 1 m/s 749 mmHg 91%
    08:00 +12°C° 0.3 mm 1 m/s 749 mmHg 85%
    09:00 +13°C° 0.3 mm 1 m/s 749 mmHg 79%
    10:00 +14°C° 0.3 mm 2 m/s 750 mmHg 74%
    11:00 +15°C° 0.3 mm 2 m/s 750 mmHg 69%
    12:00 +16°C° 0.3 mm 2 m/s 750 mmHg 65%
    13:00 +17°C° 0.3 mm 2 m/s 750 mmHg 61%
    14:00 +16°C° 0.2 mm 3 m/s 750 mmHg 64%
    15:00 +16°C° 0.2 mm 3 m/s 750 mmHg 67%
    16:00 +14°C° 0.2 mm 3 m/s 750 mmHg 70%
    17:00 +15°C° 0 mm 2 m/s 750 mmHg 70%
    18:00 +15°C° 0 mm 2 m/s 750 mmHg 70%
    19:00 +15°C° 0 mm 1 m/s 750 mmHg 70%
    20:00 +14°C° 0 mm 1 m/s 750 mmHg 75%
    21:00 +13°C° 0 mm 1 m/s 750 mmHg 80%
    22:00 +12°C° 0 mm 1 m/s 751 mmHg 85%
    23:00 +10°C° 0 mm 2 m/s 750 mmHg 87%

    20 Iunie, Joi

    Timp Temperatura Precipitaţii Vânt Presiune Umiditate
    00:00 +10°C° 0 mm 2 m/s 750 mmHg 88%
    01:00 +9°C° 0 mm 2 m/s 749 mmHg 90%
    02:00 +10°C° 0 mm 2 m/s 748 mmHg 87%
    03:00 +12°C° 0 mm 2 m/s 748 mmHg 85%
    04:00 +12°C° 0 mm 2 m/s 747 mmHg 83%
    05:00 +13°C° 0 mm 2 m/s 747 mmHg 77%
    06:00 +15°C° 0 mm 2 m/s 746 mmHg 71%
    07:00 +16°C° 0 mm 2 m/s 745 mmHg 65%
    08:00 +17°C° 0 mm 3 m/s 744 mmHg 64%
    09:00 +17°C° 0 mm 4 m/s 744 mmHg 62%
    10:00 +17°C° 0 mm 5 m/s 743 mmHg 60%
    11:00 +17°C° 0.1 mm 5 m/s 743 mmHg 62%
    12:00 +18°C° 0.1 mm 4 m/s 742 mmHg 65%
    13:00 +19°C° 0.1 mm 4 m/s 741 mmHg 67%
    14:00 +19°C° 0.1 mm 4 m/s 741 mmHg 68%
    15:00 +20°C° 0.1 mm 4 m/s 741 mmHg 68%
    16:00 +20°C° 0.1 mm 4 m/s 740 mmHg 69%
    17:00 +19°C° 0.9 mm 5 m/s 741 mmHg 73%
    18:00 +18°C° 0.9 mm 7 m/s 741 mmHg 77%
    19:00 +17°C° 0.9 mm 8 m/s 741 mmHg 80%
    20:00 +15°C° 0.3 mm 7 m/s 742 mmHg 83%
    21:00 +12°C° 0.3 mm 7 m/s 743 mmHg 86%
    22:00 +10°C° 0.3 mm 6 m/s 744 mmHg 88%
    23:00 +10°C° 0.1 mm 6 m/s 744 mmHg 89%

    21 Iunie, Vineri

    Timp Temperatura Precipitaţii Vânt Presiune Umiditate
    00:00 +9°C° 0.1 mm 5 m/s 745 mmHg 90%
    01:00 +10°C° 0.1 mm 4 m/s 746 mmHg 90%
    02:00 +10°C° 0 mm 4 m/s 746 mmHg 90%
    03:00 +10°C° 0 mm 3 m/s 747 mmHg 89%
    04:00 +10°C° 0 mm 3 m/s 747 mmHg 88%
    05:00 +10°C° 0 mm 3 m/s 748 mmHg 85%
    06:00 +12°C° 0 mm 2 m/s 748 mmHg 83%
    07:00 +13°C° 0 mm 2 m/s 748 mmHg 80%
    08:00 +13°C° 0 mm 2 m/s 749 mmHg 75%
    09:00 +14°C° 0 mm 2 m/s 749 mmHg 70%
    10:00 +15°C° 0 mm 2 m/s 749 mmHg 66%
    11:00 +15°C° 0 mm 2 m/s 749 mmHg 64%
    12:00 +16°C° 0 mm 2 m/s 749 mmHg 62%
    13:00 +16°C° 0 mm 2 m/s 749 mmHg 60%
    14:00 +15°C° 0.2 mm 2 m/s 749 mmHg 64%
    15:00 +15°C° 0.2 mm 2 m/s 749 mmHg 68%
    16:00 +13°C° 0.2 mm 3 m/s 749 mmHg 71%
    17:00 +13°C° 0.9 mm 2 m/s 749 mmHg 77%
    18:00 +12°C° 0.9 mm 2 m/s 749 mmHg 84%
    19:00 +10°C° 0.9 mm 2 m/s 749 mmHg 90%
    20:00 +10°C° 0.2 mm 1 m/s 749 mmHg 91%
    21:00 +10°C° 0.2 mm 1 m/s 749 mmHg 93%
    22:00 +8°C° 0.2 mm 0 m/s 749 mmHg 94%
    23:00 +8°C° 0 mm 0 m/s 749 mmHg 94%

    22 Iunie, Sâmbătă

    Timp Temperatura Precipitaţii Vânt Presiune Umiditate
    00:00 +7°C° 0 mm 0 m/s 749 mmHg 94%
    01:00 +7°C° 0 mm 0 m/s 749 mmHg 93%
    02:00 +8°C° 0.1 mm 0 m/s 749 mmHg 92%
    03:00 +8°C° 0.1 mm 0 m/s 749 mmHg 91%
    04:00 +9°C° 0.1 mm 0 m/s 749 mmHg 91%
    05:00 +10°C° 0.8 mm 1 m/s 749 mmHg 92%
    06:00 +10°C° 0.8 mm 1 m/s 749 mmHg 93%
    07:00 +9°C° 0.8 mm 2 m/s 750 mmHg 95%
    08:00 +9°C° 0.9 mm 2 m/s 750 mmHg 92%
    09:00 +10°C° 0.9 mm 3 m/s 750 mmHg 89%
    10:00 +10°C° 0.9 mm 3 m/s 751 mmHg 86%
    11:00 +11°C° 0.1 mm 4 m/s 751 mmHg 78%
    12:00 +12°C° 0.1 mm 4 m/s 752 mmHg 69%
    13:00 +14°C° 0.1 mm 5 m/s 753 mmHg 61%
    14:00 +13°C° 0.1 mm 6 m/s 753 mmHg 62%
    15:00 +12°C° 0.1 mm 7 m/s 754 mmHg 63%
    16:00 +12°C° 0.1 mm 8 m/s 754 mmHg 64%
    17:00 +11°C° 0 mm 7 m/s 755 mmHg 65%
    18:00 +10°C° 0 mm 7 m/s 755 mmHg 67%
    19:00 +9°C° 0 mm 6 m/s 756 mmHg 68%
    20:00 +8°C° 0 mm 5 m/s 756 mmHg 73%
    21:00 +7°C° 0 mm 4 m/s 757 mmHg 78%
    22:00 +7°C° 0 mm 2 m/s 757 mmHg 84%
    23:00 +7°C° 0 mm 2 m/s 757 mmHg 86%
    Arată mai mult